Home > Weather > Colorado Springs > Past weeks

Flag for USA Weather for the Past 2 Weeks in Colorado Springs, Colorado, USA

Now
77 °F

Scattered clouds.


Feels Like: 77 °F
Forecast: 47 / 74 °F
Wind: 28 mph from South

Location: City Of Colorado Springs Municipal Airport

Current Time: May 6, 2016 at 3:11:03 PM

Latest Report: May 6, 2016 at 1:54 PM


Visibility: 10 mi

Pressure: 29.79 "Hg (24.15 "Hg at 1831m altitude)

Humidity: 19%

Dew Point: 32 °F

Location of Colorado SpringsLocation

Historic Weather in Colorado Springs — Graph

°F

Colorado Springs Temperature Yesterday

Maximum temperature yesterday: 78 °F (at 2:54 PM)
Minimum temperature yesterday: 44 °F (at 3:54 AM)
Average temperature yesterday: 64 °F

High & Low Weather Summary for the Past Weeks

 TemperatureHumidityPressure
High78 °F (May 5, 2:54 PM)97% (Apr 29, 3:54 PM)30.37 "Hg (Apr 29, 3:54 PM)
Low27 °F (May 2, 3:54 AM)11% (Apr 23, 4:54 PM)29.42 "Hg (Apr 23, 4:54 PM)
Average49 °F50%29.92 "Hg
* Reported Apr 21 1:54 PM — May 6 1:54 PM, Colorado Springs, Weather by CustomWeather, © 2016

Note: Actual official high and low records may vary slightly from our data, if they occured in-between our weather recording intervals... More about our weather records

Advertising

Colorado Springs Weather History for the Previous 24 Hours

Scroll right to see more
 ConditionsComfort  
Time TempWeatherWind HumidityBarometerVisibility
1:54 PM
Fri, May 6
77 °FScattered clouds.28 mph19%29.79 "Hg10 mi
12:54 PM77 °FScattered clouds.15 mph19%29.80 "Hg10 mi
11:54 AM75 °FScattered clouds.12 mph20%29.80 "Hg10 mi
10:54 AM71 °FScattered clouds.9 mph29%29.82 "Hg10 mi
9:54 AM68 °FScattered clouds.10 mph32%29.85 "Hg10 mi
8:54 AM62 °FScattered clouds.3 mph38%29.86 "Hg10 mi
7:54 AM58 °FScattered clouds.5 mph44%29.85 "Hg10 mi
6:54 AM47 °FScattered clouds.6 mph66%29.88 "Hg10 mi
5:54 AM44 °FPassing clouds.7 mph73%29.86 "Hg10 mi
4:54 AM45 °FPassing clouds.6 mph71%29.85 "Hg10 mi
3:54 AM47 °FPassing clouds.6 mph71%29.85 "Hg10 mi
2:54 AM49 °FPassing clouds.10 mph69%29.83 "Hg10 mi
1:54 AM48 °FPassing clouds.13 mph68%29.86 "Hg10 mi
12:54 AM53 °FPassing clouds.8 mph56%29.87 "Hg10 mi
11:54 PM
Thu, May 5
58 °FPassing clouds.No wind47%29.88 "Hg10 mi
10:54 PM60 °FPassing clouds.3 mph42%29.89 "Hg10 mi
9:54 PM60 °FPassing clouds.8 mph42%29.90 "Hg10 mi
8:54 PM63 °FScattered clouds.12 mph33%29.86 "Hg10 mi
7:54 PM69 °FPartly sunny.12 mph21%29.85 "Hg10 mi
6:54 PM73 °FPartly sunny.13 mph18%29.87 "Hg10 mi
5:54 PM76 °FScattered clouds.13 mph15%29.88 "Hg10 mi
4:54 PM78 °FScattered clouds.13 mph13%29.89 "Hg10 mi
3:54 PM77 °FPassing clouds.12 mph14%29.90 "Hg10 mi
Weather by CustomWeather, © 2016

See weather overviewHow to use our weather pages